METEOR 2-7 DEB, 43300

Orbit data source: Space-Track

METEOR 2-7 DEB, 43300 is space debris in LEO originally from a launch on Thu, 14 May 1981 UTC launched from the Plesetsk Missile And Space Complex (PKMTR). Debris objects in space refer to the collection of defunct objects orbiting the Earth. Examples of debris include non-operational satellites, rocket bodies, and fragments generated from explosions, collisions, or faulty payload assembly.

Loading next visibility...
METEOR 2-7 DEB details
Identifier
43300, 1981-043X
Orbit
LEO
Last TLE update5 days ago
Origin
Flag of CISKVR (CIS)
ManufacturerUnknown
MissionSpacecraft
Bus & MotorUnknown
MassUnknown
Launch date (UTC)
1981-05-14 (44 years ago)
Launch vehicleUnknown
Launch site
Plesetsk Missile And Space Complex (PKMTR)
Object type
Payload
Rocket body
Debris
Shape & HBRUnknown
Radar Cross SectionSmall (<0.1 m²)

Expand to show TLE details & history

TLE from 5 days ago
0 METEOR 2-7 DEB
1 43300U 81043X   24335.50535372  .00010415  00000-0  43341-2 0  9991
2 43300  81.2565 262.9945 0027150 235.3439 124.5182 14.26077087474707
Epoch: 2024-11-30T12:07Z
Definitive object data (Epoch: 2024-11-30T12:07:42.561Z)
Latitude0.00004°
Longitude11.21022°
Altitude818.884 km
Speed7.438 km/s
True Right ascension17h 31m 58s
True Declination0° 00' 00"
Sunlit
Object was in daylight at TLE epoch
Visualization TLE readout
Latitude-68.03334°
Longitude-151.37952°
Altitude812.981 km
Speed7.455 km/s
Apparent Right ascension20h 20m 04s
Apparent Declination-77° 48' 15"
Sunlit
Object is in daylight
Visualization observer readout
Local Sidereal Time07:27:02
Azimuth184.483° SSW
Elevation-51.711°
Doppler factor1
Orbital elements
Apogee altitude821.52 km
Perigee altitude782.532 km
Semi-major axis7,180.163 km
Eccentricity0.002715
Inclination81.2565°
RAAN262.9945°
Arg. of periapsis235.3439°
True anomaly124.77405°
Mean anomaly124.5182°
Eccentric anomaly124.64617°
Mean motion3.56732 °/min
BSTAR0.0043341
Orbital period100.92 mins
Loading maneuver chart data...
Loading historical data...
Loading historical data...
Loading historical data...
Loading historical data...
Loading historical data...
Loading historical data...
Loading historical data...

METEOR 2-7 DEB Visibility forecast

Observer location: undefined°, undefined

Span
Click to sort rows by Start time (UTC) header in descending order
Start Az.
Max El. time (UTC)
Max El. Az.
Max El.
End time (UTC)
End Az.
7 mins2024-12-05 18:32:48.974Z131.845° SE2024-12-05 18:35:48.974Z93.275° ESE21.42°2024-12-05 18:39:48.974Z41.24° NE
9 mins2024-12-05 20:13:48.974Z220.306° SW2024-12-05 20:17:48.974Z286.091° WNW33.444°2024-12-05 20:22:48.974Z354.527° N
4 mins2024-12-06 05:07:48.974Z51.336° ENE2024-12-06 05:08:48.974Z63.715° ENE14.1°2024-12-06 05:11:48.974Z98.475° ESE
8 mins2024-12-06 06:47:48.974Z342.037° N2024-12-06 06:51:48.974Z239.367° WSW42.321°2024-12-06 06:55:48.974Z183.89° SSW
|